Home > Weather > Montgomery > Past weeks

Flag for U.S.A. Weather for the Past 2 Weeks in Montgomery, Alabama, U.S.A.

Now
35 °F

Clear.


Feels Like: 35 °F
Forecast: 29 / 64 °F
Wind: No wind

Location: Maxwell Air Force Base / Montgomery

Current Time: Feb 10, 2016 at 8:34:50 PM

Latest Report: Feb 10, 2016 at 7:58 PM


Visibility: 10 mi

Pressure: 30.20 "Hg

Humidity: 55%

Dew point: 20 °F

Location of MontgomeryLocation

Historic Weather in Montgomery — Graph

°F

Montgomery Temperature Yesterday

Maximum temperature yesterday: 46 °F (at 3:58 PM)
Minimum temperature yesterday: 33 °F (at 11:58 PM)
Average temperature yesterday: 40 °F

High & Low Weather Summary for the Past Weeks

 TemperatureHumidityPressure
High76 °F (Feb 2, 12:58 PM)100% (Jan 27, 2:03 AM)30.49 "Hg (Jan 27, 2:03 AM)
Low27 °F (Feb 10, 6:58 AM)23% (Feb 10, 1:58 PM)29.84 "Hg (Feb 3, 1:04 AM)
Average49 °F64%30.09 "Hg
* Reported Jan 26 6:58 PM — Feb 10 6:58 PM, Montgomery, Weather by CustomWeather, © 2016

Note: Actual official high and low records may vary slightly from our data, if they occured in-between our weather recording intervals... More about our weather records

Advertising

Montgomery Weather History for the Previous 24 Hours

 ConditionsComfort  
Time TempWeatherWind HumidityBarometerVisibility
6:58 PM
Wed, Feb 10
37 °FClear.No wind47%30.18 "Hg10 mi
5:58 PM41 °FClear.3 mph32%30.20 "Hg10 mi
4:58 PM44 °FSunny.8 mph25%30.21 "Hg10 mi
3:58 PM46 °FSunny.9 mph24%30.20 "Hg10 mi
2:58 PM46 °FSunny.10 mph24%30.21 "Hg10 mi
1:58 PM45 °FSunny.12 mph23%30.21 "Hg10 mi
12:58 PM43 °FSunny.9 mph25%30.22 "Hg10 mi
11:58 AM42 °FSunny.12 mph26%30.25 "Hg10 mi
10:58 AM39 °FSunny.13 mph31%30.27 "Hg10 mi
9:58 AM36 °FSunny.12 mph38%30.29 "Hg10 mi
8:58 AM33 °FSunny.12 mph47%30.28 "Hg10 mi
7:58 AM30 °FSunny.7 mph58%30.27 "Hg10 mi
6:58 AM27 °FSunny.2 mph65%30.25 "Hg10 mi
5:58 AM27 °FClear.5 mph61%30.23 "Hg10 mi
4:58 AM28 °FClear.3 mph61%30.21 "Hg10 mi
3:58 AM28 °FClear.3 mph60%30.19 "Hg10 mi
2:58 AM29 °FClear.5 mph56%30.18 "Hg10 mi
1:58 AM30 °FClear.6 mph54%30.17 "Hg10 mi
12:58 AM31 °FClear.12 mph52%30.17 "Hg10 mi
11:58 PM
Tue, Feb 9
33 °FClear.6 mph47%30.15 "Hg10 mi
10:58 PM34 °FClear.6 mph45%30.13 "Hg10 mi
9:58 PM35 °FClear.6 mph44%30.10 "Hg10 mi
8:58 PM37 °FClear.3 mph41%30.08 "Hg10 mi
Weather by CustomWeather, © 2016

See weather overviewHow to use our weather pages